Weather History for KJZI - July, 2014

Change the Weather History Date:

Thursday, July 3, 2014

  Actual Average (KCHS) Record (KCHS)
Temperature  
Mean Temperature 80 °F 82 °F  
Max Temperature 86 °F 91 °F 97 °F (1996)
Min Temperature 75 °F 72 °F 64 °F (1952)
Degree Days  
Heating Degree Days 0 0  
Month to date heating degree days 0  
Since 1 June heating degree days 1  
Since 1 July heating degree days 0  
Cooling Degree Days 16 16  
Month to date cooling degree days 48  
Year to date cooling degree days 831  
Since 1 June cooling degree days 469  
Growing Degree Days 30 (Base 50)    
Moisture  
Dew Point 71 °F    
Average Humidity 72    
Maximum Humidity 89    
Minimum Humidity 51    
Precipitation  
Precipitation 0.00 in 0.21 in 5.39 in (1981)
Month to date precipitation 0.64  
Year to date precipitation 22.60  
Sea Level Pressure  
Sea Level Pressure 29.87 in    
Wind  
Wind Speed 10 mph (NNW)    
Max Wind Speed 20 mph    
Max Gust Speed 28 mph    
Visibility 10 miles    
Events Rain , Thunderstorm    
T = Trace of Precipitation, MM = Missing Value Source: NWS Daily Summary

Daily Weather History Graph

Daily Weather History Graph

Search for Another Location

Airport or City:

Trip Planner

Search our weather history database for the weather conditions in past years. The results will help you decide how hot, cold, wet, or windy it might be!

Date:

Astronomy

Jul. 03, 2014 Rise Set
Actual Time 6:16 AM EDT 8:31 PM EDT
Civil Twilight 5:48 AM EDT 9:00 PM EDT
Nautical Twilight 5:13 AM EDT 9:34 PM EDT
Astronomical Twilight 4:35 AM EDT 10:12 PM EDT
Moon 11:54 AM EDT (7/3) No Moon Set
Length of Visible Light 15h 11m
Length of Day
14h 15m
Waxing Crescent, 33% of the Moon is Illuminated
Jul 3
Waxing Crescent
Jul 5
First Quarter
Jul 12
Full
Jul 18
Last Quarter
Jul 26
New

Hourly Weather History & Observations

Time (EDT) Temp. Heat Index Dew Point Humidity Pressure Visibility Wind Dir Wind Speed Gust Speed Precip Events Conditions
12:15 AM 82.4 °F 88.2 °F 73.4 °F 74% 29.95 in 10.0 mi NE 9.2 mph - 0.00 in   Overcast
12:35 AM 82.4 °F 88.2 °F 73.4 °F 74% 29.95 in 10.0 mi NE 9.2 mph - 0.00 in   Mostly Cloudy
12:55 AM 82.4 °F 88.2 °F 73.4 °F 74% 29.95 in 10.0 mi NE 6.9 mph - 0.00 in   Mostly Cloudy
1:15 AM 82.4 °F 88.2 °F 73.4 °F 74% 29.95 in 10.0 mi NE 8.1 mph - 0.00 in   Scattered Clouds
1:35 AM 80.6 °F 84.6 °F 71.6 °F 74% 29.94 in 10.0 mi NE 6.9 mph - 0.00 in   Clear
1:55 AM 80.6 °F 84.6 °F 71.6 °F 74% 29.93 in 10.0 mi NNE 8.1 mph - 0.00 in   Clear
2:15 AM 80.6 °F 84.6 °F 71.6 °F 74% 29.92 in 10.0 mi NNE 6.9 mph - 0.00 in   Clear
2:35 AM 80.6 °F 85.4 °F 73.4 °F 79% 29.92 in 10.0 mi North 9.2 mph - 0.00 in   Scattered Clouds
2:55 AM 80.6 °F 85.4 °F 73.4 °F 79% 29.91 in 10.0 mi North 11.5 mph - 0.00 in   Overcast
3:15 AM 80.6 °F 85.4 °F 73.4 °F 79% 29.90 in 10.0 mi NNE 12.7 mph - 0.00 in   Scattered Clouds
3:35 AM 80.6 °F 85.4 °F 73.4 °F 79% 29.89 in 10.0 mi NE 11.5 mph 17.3 mph 0.00 in Thunderstorm Partly Cloudy
4:15 AM 78.8 °F - 69.8 °F 74% 29.88 in 10.0 mi ENE 12.7 mph 19.6 mph 0.00 in Thunderstorm Scattered Clouds
4:35 AM 78.8 °F - 69.8 °F 74% 29.87 in 10.0 mi NE 12.7 mph 20.7 mph 0.00 in Thunderstorm Scattered Clouds
4:55 AM 75.2 °F - 71.6 °F 89% 29.86 in 4.0 mi NE 13.8 mph 19.6 mph 0.00 in Rain Light Rain
5:15 AM 75.2 °F - 71.6 °F 89% 29.86 in 5.0 mi NNE 13.8 mph 17.3 mph 0.00 in Rain Light Rain
5:35 AM 75.2 °F - 71.6 °F 89% 29.87 in 7.0 mi NNE 12.7 mph 18.4 mph 0.00 in   Mostly Cloudy
5:55 AM 75.2 °F - 71.6 °F 89% 29.87 in 8.0 mi NNE 11.5 mph - 0.00 in   Mostly Cloudy
6:15 AM 75.2 °F - 71.6 °F 89% 29.87 in 10.0 mi North 11.5 mph - 0.00 in   Light Drizzle
6:35 AM 75.2 °F - 71.6 °F 89% 29.86 in 10.0 mi NNE 11.5 mph 17.3 mph 0.00 in   Scattered Clouds
6:55 AM 75.2 °F - 71.6 °F 89% 29.85 in 10.0 mi NNE 12.7 mph 17.3 mph 0.00 in   Scattered Clouds
7:15 AM 75.2 °F - 71.6 °F 89% 29.84 in 10.0 mi NNE 11.5 mph - 0.00 in   Partly Cloudy
7:35 AM 77.0 °F - 71.6 °F 83% 29.85 in 10.0 mi NNE 12.7 mph - 0.00 in   Partly Cloudy
7:55 AM 75.2 °F - 69.8 °F 83% 29.85 in 7.0 mi NE 13.8 mph 27.6 mph 0.00 in   Mostly Cloudy
8:15 AM 75.2 °F - 69.8 °F 83% 29.85 in 10.0 mi NNE 13.8 mph - 0.00 in   Clear
8:35 AM 77.0 °F - 69.8 °F 78% 29.86 in 9.0 mi North 12.7 mph - 0.00 in   Clear
8:55 AM 77.0 °F - 69.8 °F 78% 29.86 in 10.0 mi North 10.4 mph 16.1 mph 0.00 in   Partly Cloudy
9:15 AM 77.0 °F - 71.6 °F 83% 29.86 in 2.0 mi North 12.7 mph 20.7 mph 0.00 in   Haze
9:35 AM 77.0 °F - 71.6 °F 83% 29.86 in 7.0 mi North 13.8 mph 21.9 mph 0.00 in   Mostly Cloudy
10:15 AM 78.8 °F - 71.6 °F 78% 29.82 in 10.0 mi North 13.8 mph 21.9 mph 0.00 in   Clear
10:35 AM 80.6 °F 84.6 °F 71.6 °F 74% 29.82 in 10.0 mi NNW 15.0 mph 23.0 mph 0.00 in   Mostly Cloudy
10:55 AM 80.6 °F 84.6 °F 71.6 °F 74% 29.81 in 7.0 mi North 13.8 mph 21.9 mph 0.00 in   Mostly Cloudy
11:15 AM 80.6 °F 83.9 °F 69.8 °F 70% 29.79 in 10.0 mi North 12.7 mph 23.0 mph 0.00 in   Scattered Clouds
11:35 AM 80.6 °F 83.9 °F 69.8 °F 70% 29.80 in 10.0 mi NNW 13.8 mph 19.6 mph 0.00 in   Partly Cloudy
11:55 AM 80.6 °F 84.6 °F 71.6 °F 74% 29.82 in 10.0 mi NW 11.5 mph 17.3 mph 0.00 in   Partly Cloudy
12:15 PM 80.6 °F 84.6 °F 71.6 °F 74% 29.83 in 8.0 mi NNW 15.0 mph 20.7 mph 0.00 in Rain Light Rain
12:35 PM 80.6 °F 83.9 °F 69.8 °F 70% 29.83 in 10.0 mi NW 12.7 mph 23.0 mph 0.00 in   Mostly Cloudy
12:55 PM 82.4 °F 86.3 °F 69.8 °F 66% 29.84 in 10.0 mi NNW 15.0 mph 23.0 mph 0.00 in   Mostly Cloudy
1:15 PM 82.4 °F 85.4 °F 68.0 °F 62% 29.83 in 10.0 mi NNW 13.8 mph 20.7 mph 0.00 in   Overcast
1:35 PM 82.4 °F 84.6 °F 66.2 °F 58% 29.84 in 10.0 mi NNW 16.1 mph 21.9 mph 0.00 in   Mostly Cloudy
1:55 PM 82.4 °F 84.6 °F 66.2 °F 58% 29.84 in 10.0 mi NNW 18.4 mph 25.3 mph 0.00 in   Scattered Clouds
2:15 PM 84.2 °F 86.6 °F 66.2 °F 55% 29.84 in 10.0 mi NNW 19.6 mph 25.3 mph 0.00 in   Mostly Cloudy
2:35 PM 82.4 °F 85.4 °F 68.0 °F 62% 29.85 in 10.0 mi NW 12.7 mph 25.3 mph 0.00 in   Mostly Cloudy
2:55 PM 82.4 °F 84.6 °F 66.2 °F 58% 29.85 in 10.0 mi NW 19.6 mph 24.2 mph 0.00 in   Mostly Cloudy
3:15 PM 82.4 °F 84.6 °F 66.2 °F 58% 29.85 in 10.0 mi NW 15.0 mph 24.2 mph 0.00 in   Scattered Clouds
3:35 PM 82.4 °F 84.6 °F 66.2 °F 58% 29.84 in 10.0 mi NW 12.7 mph 19.6 mph 0.00 in   Scattered Clouds
3:55 PM 84.2 °F 87.3 °F 68.0 °F 58% 29.84 in 10.0 mi NW 11.5 mph 16.1 mph 0.00 in   Mostly Cloudy
4:35 PM 86.0 °F 88.2 °F 66.2 °F 51% 29.84 in 10.0 mi NW 12.7 mph 18.4 mph 0.00 in   Partly Cloudy
4:55 PM 86.0 °F 89.4 °F 68.0 °F 55% 29.84 in 10.0 mi West 11.5 mph 16.1 mph 0.00 in   Scattered Clouds
5:15 PM 84.2 °F 88.4 °F 69.8 °F 62% 29.85 in 10.0 mi West 10.4 mph - 0.00 in   Scattered Clouds
5:35 PM 86.0 °F 90.4 °F 69.8 °F 58% 29.85 in 10.0 mi WNW 9.2 mph - 0.00 in   Scattered Clouds
5:55 PM 86.0 °F 90.4 °F 69.8 °F 58% 29.85 in 10.0 mi WNW 10.4 mph - 0.00 in   Partly Cloudy
6:15 PM 86.0 °F 90.4 °F 69.8 °F 58% 29.85 in 10.0 mi West 8.1 mph - 0.00 in   Clear
6:35 PM 84.2 °F 89.6 °F 71.6 °F 66% 29.86 in 10.0 mi WNW 6.9 mph - 0.00 in   Clear
6:55 PM 84.2 °F 89.6 °F 71.6 °F 66% 29.87 in 10.0 mi West 5.8 mph - 0.00 in   Partly Cloudy
7:15 PM 82.4 °F 87.2 °F 71.6 °F 70% 29.87 in 10.0 mi WSW 5.8 mph - 0.00 in   Clear
7:35 PM 82.4 °F 87.2 °F 71.6 °F 70% 29.88 in 10.0 mi Calm Calm - 0.00 in   Clear
7:55 PM 82.4 °F 87.2 °F 71.6 °F 70% 29.89 in 10.0 mi Calm Calm - 0.00 in   Clear
8:15 PM 82.4 °F 87.2 °F 71.6 °F 70% 29.89 in 10.0 mi Calm Calm - 0.00 in   Clear
8:35 PM 82.4 °F 87.2 °F 71.6 °F 70% 29.90 in 10.0 mi Calm Calm - 0.00 in   Clear
8:55 PM 82.4 °F 86.3 °F 69.8 °F 66% 29.90 in 10.0 mi Calm Calm - 0.00 in   Clear
9:15 PM 80.6 °F 83.9 °F 69.8 °F 70% 29.91 in 10.0 mi Calm Calm - 0.00 in   Clear
9:35 PM 80.6 °F 83.9 °F 69.8 °F 70% 29.93 in 10.0 mi Calm Calm - 0.00 in   Clear
9:55 PM 80.6 °F 83.9 °F 69.8 °F 70% 29.95 in 10.0 mi Calm Calm - 0.00 in   Clear
10:15 PM 80.6 °F 83.9 °F 69.8 °F 70% 29.95 in 10.0 mi Calm Calm - 0.00 in   Scattered Clouds
10:35 PM 80.6 °F 84.6 °F 71.6 °F 74% 29.95 in 10.0 mi SW 8.1 mph - 0.00 in   Scattered Clouds
10:55 PM 80.6 °F 84.6 °F 71.6 °F 74% 29.95 in 10.0 mi SW 8.1 mph - 0.00 in   Clear
11:15 PM 80.6 °F 84.6 °F 71.6 °F 74% 29.94 in 10.0 mi WSW 6.9 mph - 0.00 in   Clear
11:35 PM 80.6 °F 84.6 °F 71.6 °F 74% 29.94 in 10.0 mi WSW 8.1 mph - 0.00 in   Clear
11:55 PM 80.6 °F 84.6 °F 71.6 °F 74% 29.94 in 10.0 mi WSW 8.1 mph - 0.00 in   Partly Cloudy